Weather in Dal'niye Zelentsy

Russia / Murmansk Oblast     69°06′59″N   36°03′58″E
temp.,
°C
wind,
m/s
gust,
m/s
humid.,
%
clouds,
%
prec.,
mm/h
press.,
hPa
HPBL,
m
14 may, fri
fri1400:00+3n6894100 0.3 1019448
03:00+2nne6897100 2.6 1020451
06:00+2nne6899100 1.2 1020412
09:00+2ne7996100 1.9 1021500
12:00+2ene7988100 1.2 1022721
15:00+2ene8985100 1.3 1022793
18:00+1e8983100 0.1 1022857
21:00+1e8981100 0.1 1022872
15 may, sat
sat1500:000e7979100 0.0 1022833
03:000e7979100 0.0 1022730
06:000e7976100 0.0 1021788
09:00+1e886897 0.0 1021846
12:00+2e886379 0.0 1021831
15:00+2e886374 0.0 1021820
18:00+2e776878 0.0 1020772
21:00+1ese787393 0.0 1020646
16 may, sun
sun1600:000ese677699 0.0 1020547
03:000ese677997 0.0 1020512
06:00+1ese677576 0.0 1020613
09:00+2ese776872 0.0 1019748
12:00+3ese776366 0.0 1019829
15:00+4ese885768 0.0 1019770
18:00+3ese885687 0.0 1019670
21:00+2ese7864100 0.0 1018530
17 may, mon
mon1700:00+2se7969100 0.0 1018418
03:00+2se6966100 0.0 1018331
06:00+1se6970100 0.5 1018310
09:00+4sse685989 0.8 1018385
12:00+8s565897 0.0 1017458
15:00+8sw2365100 0.1 1017131
18:00+9ssw1366100 0.0 1016213
21:00+8sw1276100 0.0 101619
18 may, tue
tue1800:00+8ssw2276100 0.0 101612
03:00+8sw4570100 0.0 101774
06:00+8ssw4671100 0.0 1017108
09:00+10sw456380 0.0 1017203
12:00+13sw23524 0.0 1017664
15:00+14e235070 0.0 1016800
18:00+14e5549100 0.0 1014823
21:00+11e61061100 0.0 1014166